一网星座-0468星 (ONEWEB-0468 )

导读

ONEWEB-0468是英国OneWeb低轨卫星星座中的一颗通信卫星,于2022年2月10日发射入轨。该卫星归属英国主导的OneWeb项目,运行在近地轨道,属于全球卫星互联网组网的一部分,旨在为全球提供宽带互联网接入服务,补充地面网络覆盖盲区。 它同批次组网卫星一同发射,助力OneWeb完成近地轨道星座部署,推进全球互联覆盖的战略目标,但大规模低轨卫星星座组网也引发天文界对太空光污染及天文观测干扰的关注。

基本信息
目录编号:
51652
目录名称:
ONEWEB-0468
国际标识:
2022-012AG
轨道中心:
EARTH
卫星名称:
一网星座-0468星
卫星全名:
一网星座-0468星 (ONEWEB-0468 )
卫星状态:
在轨 (已飞行1585 天)
发射日期:
2022-02-10 UTC
国别 :
英国 (GB)
星等 :
--
轨道信息
数据来源 国际轨道数据 AOE轨道数据
星历时间 2026-06-14T05:48:48+0800
14小时前
查看轨道信息
2026-06-14T01:00:00+0800
18小时前
查看轨道信息
半长轴 7599.847km 7599.835km
偏心率 0.0001564 0.0001586
轨道倾角 87.883° 87.884°
近地点辐角 74.319° 74.013°
升交点赤经 36.929° 36.969°
平近点角 285.811° 60.556°
近地点 1220.521km 1220.492km
远地点 1222.899km 1222.904km
周期 109.892分钟 109.892分钟
每日圈数 13.103747 13.10378
详细信息
平衡模式:
三轴稳定
覆盖范围:
全球
运营商:
一网卫星公司
运营商所在国:
英国
制造商(研发单位):
一网卫星公司
制造商所在国:
英国
使用方式:
暂无
卫星简介
OneWeb卫星网络由648颗重约125公斤的微型卫星组成,运行在1200公里的轨道上。 每颗卫星都能够提供至少每秒8千兆位的吞吐量,以使用其高吞吐量的Ku频段有效载荷为家庭和移动平台提供互联网接入。该卫星仍在工作。
2D轨道图
3D轨道图
轨道高度分析图
轨道倾角分析图
轨道综合分析图
查看轨道综合分析图